OK1FET-15 Weather Reports


time (UTC)temp
C
wind
direction
speed
KPH
gust
KPH
rain 1hr
cm
rain 24hr
cm
rain mn
cm
humidity
%
barometer
mb
20260504182423 18 38 0.0 0.0 0.00 0.00 0.00 41 1010.7
20260504181859 18 7 0.0 0.0 0.00 0.00 0.00 40 1010.7
20260504181334 18 327 0.0 0.0 0.00 0.00 0.00 39 1010.7
20260504180809 19 293 0.0 0.0 0.00 0.00 0.00 39 1010.6
20260504180243 19 270 0.0 0.0 0.00 0.00 0.00 37 1010.6
20260504175736 20 229 0.0 0.0 0.00 0.00 0.00 37 1010.6
20260504175228 20 225 0.0 0.0 0.00 0.00 0.00 36 1010.5
20260504174720 20 225 0.0 0.0 0.00 0.00 0.00 36 1010.5
20260504174212 20 225 0.0 0.0 0.00 0.00 0.00 36 1010.4
20260504173704 21 225 0.0 0.0 0.00 0.00 0.00 36 1010.4
20260504173157 21 225 0.0 0.0 0.00 0.00 0.00 36 1010.4
20260504172649 21 225 0.0 0.0 0.00 0.00 0.00 36 1010.5
20260504172141 21 225 0.0 0.0 0.00 0.00 0.00 35 1010.6
20260504171633 22 225 0.0 0.0 0.00 0.00 0.00 34 1010.6
20260504171125 22 225 0.0 0.0 0.00 0.00 0.00 34 1010.6
20260504170617 22 225 0.0 0.0 0.00 0.00 0.00 34 1010.6
20260504170109 22 181 0.0 0.0 0.00 0.00 0.00 34 1010.7
20260504160441 25 110 0.0 0.0 0.00 0.00 0.00 30 1011.0
20260504150809 29 182 0.0 1.6 0.00 0.00 0.00 25 1011.4
20260504150300 29 91 0.0 0.0 0.00 0.00 0.00 25 1011.4
20260504141133 31 119 0.0 0.0 0.00 0.00 0.00 24 1011.6
20260504140625 30 180 0.0 0.0 0.00 0.00 0.00 24 1011.7
20260504140116 30 232 0.0 0.0 0.00 0.00 0.00 24 1011.8
20260504130442 27 105 0.0 0.0 0.00 0.00 0.00 26 1012.3
20260504120257 32 188 0.0 0.0 0.00 0.00 0.00 21 1012.6
20260504110618 31 62 0.0 0.0 0.00 0.00 0.00 22 1013.2
20260504110110 31 220 0.0 1.6 0.00 0.00 0.00 24 1013.2
20260504100432 30 164 1.6 4.8 0.00 0.00 0.00 27 1013.9
20260504081636 23 37 0.0 3.2 0.00 0.00 0.00 39 1014.1
20260504081128 23 77 0.0 0.0 0.00 0.00 0.00 39 1014.1
20260504080619 23 122 0.0 3.2 0.00 0.00 0.00 40 1014.1
20260504080111 23 111 0.0 0.0 0.00 0.00 0.00 40 1014.1
20260504050419 12 225 0.0 0.0 0.00 0.00 0.00 73 1013.5
20260504045855 12 153 0.0 0.0 0.00 0.00 0.00 72 1013.5
20260504045330 11 131 0.0 0.0 0.00 0.00 0.00 72 1013.4
20260504030853 9 328 0.0 0.0 0.00 0.00 0.00 73 1013.2
20260504030329 9 315 0.0 0.0 0.00 0.00 0.00 72 1013.2
20260504025805 9 315 0.0 0.0 0.00 0.00 0.00 69 1013.1
20260504025240 10 301 0.0 0.0 0.00 0.00 0.00 68 1013.0
20260504024716 10 267 0.0 0.0 0.00 0.00 0.00 69 1013.1
20260504024151 10 101 0.0 0.0 0.00 0.00 0.00 71 1013.1
20260504023644 10 276 0.0 0.0 0.00 0.00 0.00 68 1013.0
20260504023137 10 197 0.0 0.0 0.00 0.00 0.00 72 1013.2
20260504022630 10 187 0.0 0.0 0.00 0.00 0.00 66 1013.1
20260504022123 10 225 0.0 0.0 0.00 0.00 0.00 69 1013.4
20260504021616 10 225 0.0 0.0 0.00 0.00 0.00 66 1013.4
20260504021109 10 225 0.0 0.0 0.00 0.00 0.00 70 1013.2
20260504020602 10 225 0.0 0.0 0.00 0.00 0.00 66 1013.0
20260504020054 10 225 0.0 0.0 0.00 0.00 0.00 67 1013.0
20260504015547 10 172 0.0 0.0 0.00 0.00 0.00 68 1012.8
20260504015040 11 45 0.0 0.0 0.00 0.00 0.00 64 1012.7
20260504014533 11 45 0.0 0.0 0.00 0.00 0.00 63 1012.6
20260504014026 11 45 0.0 0.0 0.00 0.00 0.00 64 1012.7
20260504013519 11 45 0.0 0.0 0.00 0.00 0.00 63 1012.6
20260504013012 11 46 0.0 0.0 0.00 0.00 0.00 63 1012.5
20260504012505 11 139 0.0 0.0 0.00 0.00 0.00 62 1012.6
20260504011957 11 158 0.0 0.0 0.00 0.00 0.00 64 1012.6
20260504011450 11 135 0.0 0.0 0.00 0.00 0.00 63 1012.5
20260504010943 11 135 0.0 0.0 0.00 0.00 0.00 64 1012.4
20260504010436 11 135 0.0 0.0 0.00 0.00 0.00 63 1012.4
20260504005929 11 153 0.0 0.0 0.00 0.00 0.00 62 1012.4
20260504005422 11 135 0.0 0.0 0.00 0.00 0.00 62 1012.3
20260504004914 11 97 0.0 0.0 0.00 0.00 0.00 61 1012.4
20260504004407 11 89 0.0 0.0 0.00 0.00 0.00 61 1012.4
20260504003900 11 135 0.0 0.0 0.00 0.00 0.00 62 1012.4
20260504003353 11 123 0.0 0.0 0.00 0.00 0.00 61 1012.5
20260504002846 11 135 0.0 0.0 0.00 0.00 0.00 61 1012.5
20260504002339 11 135 0.0 0.0 0.00 0.00 0.00 60 1012.4
20260504001831 11 135 0.0 0.0 0.00 0.00 0.00 59 1012.4
20260504001324 11 136 0.0 0.0 0.00 0.00 0.00 59 1012.5
20260504000817 11 96 0.0 0.0 0.00 0.00 0.00 59 1012.5
20260504000310 11 61 0.0 0.0 0.00 0.00 0.00 58 1012.5
20260503235803 12 45 0.0 0.0 0.00 0.00 0.00 58 1012.5
20260503235256 12 45 0.0 0.0 0.00 0.00 0.00 58 1012.5
20260503234748 12 45 0.0 0.0 0.00 0.00 0.00 58 1012.5
20260503234241 12 45 0.0 0.0 0.00 0.00 0.00 57 1012.5
20260503233734 12 45 0.0 0.0 0.00 0.00 0.00 57 1012.6
20260503233227 12 48 0.0 0.0 0.00 0.00 0.00 58 1012.7
20260503232720 12 45 0.0 0.0 0.00 0.00 0.00 58 1012.6
20260503232212 12 45 0.0 0.0 0.00 0.00 0.00 58 1012.6
20260503231705 12 45 0.0 0.0 0.00 0.00 0.00 58 1012.6
20260503231158 12 66 0.0 0.0 0.00 0.00 0.00 58 1012.6
20260503230651 12 45 0.0 0.0 0.00 0.00 0.00 58 1012.5
20260503230144 12 51 0.0 0.0 0.00 0.00 0.00 57 1012.5
20260503225637 12 60 0.0 0.0 0.00 0.00 0.00 57 1012.5
20260503225129 12 54 0.0 0.0 0.00 0.00 0.00 58 1012.5
20260503224622 12 68 0.0 0.0 0.00 0.00 0.00 57 1012.5
20260503224115 12 74 0.0 0.0 0.00 0.00 0.00 57 1012.5
20260503223608 12 93 0.0 0.0 0.00 0.00 0.00 57 1012.5
20260503223101 12 90 0.0 0.0 0.00 0.00 0.00 57 1012.5
20260503222553 12 104 0.0 0.0 0.00 0.00 0.00 57 1012.5
20260503222046 12 93 0.0 0.0 0.00 0.00 0.00 56 1012.5
20260503221539 12 90 0.0 0.0 0.00 0.00 0.00 56 1012.5
20260503221032 12 90 0.0 0.0 0.00 0.00 0.00 56 1012.5
20260503220525 12 96 0.0 0.0 0.00 0.00 0.00 56 1012.5
20260503220017 12 90 0.0 0.0 0.00 0.00 0.00 56 1012.5
20260503215510 12 93 0.0 0.0 0.00 0.00 0.00 56 1012.5
20260503215003 13 90 0.0 0.0 0.00 0.00 0.00 55 1012.5
20260503214456 13 87 0.0 0.0 0.00 0.00 0.00 54 1012.5
20260503213948 13 85 0.0 0.0 0.00 0.00 0.00 53 1012.5
20260503213441 13 88 0.0 0.0 0.00 0.00 0.00 53 1012.6
20260503212934 13 71 0.0 0.0 0.00 0.00 0.00 52 1012.6
20260503212427 13 81 0.0 0.0 0.00 0.00 0.00 52 1012.5
20260503211919 13 67 0.0 0.0 0.00 0.00 0.00 52 1012.5
20260503211412 13 87 0.0 0.0 0.00 0.00 0.00 51 1012.5
20260503210905 14 76 0.0 0.0 0.00 0.00 0.00 51 1012.5
20260503210357 14 63 0.0 0.0 0.00 0.00 0.00 50 1012.5
20260503205850 14 81 0.0 0.0 0.00 0.00 0.00 50 1012.5
20260503205343 14 81 0.0 0.0 0.00 0.00 0.00 50 1012.5
20260503204835 14 77 0.0 0.0 0.00 0.00 0.00 49 1012.6
20260503204328 14 73 0.0 0.0 0.00 0.00 0.00 48 1012.6
20260503203821 15 46 0.0 0.0 0.00 0.00 0.00 48 1012.7
20260503203313 15 57 0.0 0.0 0.00 0.00 0.00 48 1012.7
20260503202806 15 80 0.0 0.0 0.00 0.00 0.00 47 1012.7
20260503202258 15 76 0.0 1.6 0.00 0.00 0.00 47 1012.8
20260503201751 15 55 0.0 0.0 0.00 0.00 0.00 46 1012.7
20260503201244 15 107 0.0 0.0 0.00 0.00 0.00 46 1012.8
20260503200736 15 66 0.0 0.0 0.00 0.00 0.00 46 1012.8
20260503200229 15 99 0.0 0.0 0.00 0.00 0.00 46 1012.8
20260503195721 15 130 0.0 0.0 0.00 0.00 0.00 46 1012.9
20260503195214 15 108 0.0 3.2 0.00 0.00 0.00 46 1012.9
20260503194707 16 71 0.0 0.0 0.00 0.00 0.00 45 1012.9
20260503194159 16 73 0.0 0.0 0.00 0.00 0.00 45 1012.9
20260503193652 16 88 1.6 3.2 0.00 0.00 0.00 45 1012.8
20260503193144 16 38 0.0 0.0 0.00 0.00 0.00 44 1012.8
20260503192637 16 80 0.0 1.6 0.00 0.00 0.00 43 1012.7
20260503192129 16 94 0.0 1.6 0.00 0.00 0.00 43 1012.7
20260503191622 16 66 1.6 4.8 0.00 0.00 0.00 43 1012.6
20260503191114 16 83 0.0 3.2 0.00 0.00 0.00 42 1012.6
20260503190607 16 72 1.6 4.8 0.00 0.00 0.00 42 1012.6
20260503190100 16 56 0.0 0.0 0.00 0.00 0.00 41 1012.5
20260503185552 16 86 0.0 0.0 0.00 0.00 0.00 40 1012.4
20260503185045 17 77 0.0 0.0 0.00 0.00 0.00 40 1012.4
20260503184537 17 63 0.0 3.2 0.00 0.00 0.00 39 1012.4
20260503184029 17 69 0.0 0.0 0.00 0.00 0.00 39 1012.3